Location: Aalen
(48.8330°N, 10.1000°E)
Time: 09:53:59
(UTC+01:00)

UWE-3 - Visible Passes

Search period start: 04 March 2024 00:00
Search period end: 14 March 2024 00:00
Orbit: 572 x 657 km, 97.8° (Epoch: 03 March)

Date Brightness Start Highest point End Pass type
(mag) Time Alt. Az. Time Alt. Az. Time Alt. Az.
04 Mar ? 03:49:48 10° N 03:50:20 13° N 03:50:20 13° N visible
05 Mar ? 04:05:38 10° N 04:06:11 13° NNW 04:06:11 13° NNW visible
06 Mar ? 02:44:44 10° NNE 02:44:58 11° NNE 02:44:58 11° NNE visible
06 Mar ? 04:21:35 10° NNW 04:22:01 12° NNW 04:22:01 12° NNW visible
07 Mar ? 03:00:14 10° NNE 03:00:48 14° NNE 03:00:48 14° NNE visible
07 Mar ? 04:37:45 10° NNW 04:37:51 10° NNW 04:37:51 10° NNW visible
08 Mar ? 03:15:48 10° N 03:16:37 15° N 03:16:37 15° N visible
09 Mar ? 03:31:26 10° N 03:32:26 17° N 03:32:26 17° N visible
10 Mar ? 03:47:07 10° N 03:48:14 17° N 03:48:14 17° N visible
11 Mar ? 02:26:39 10° NNE 02:26:59 12° NNE 02:26:59 12° NNE visible
11 Mar ? 04:02:53 10° N 04:04:02 16° NNW 04:04:02 16° NNW visible
12 Mar ? 02:42:00 10° NNE 02:42:46 15° NNE 02:42:46 15° NNE visible
12 Mar ? 04:18:47 10° NNW 04:19:49 14° NNW 04:19:49 14° NNW visible
13 Mar ? 02:57:26 10° NNE 02:58:33 18° NNE 02:58:33 18° NNE visible
13 Mar ? 04:34:52 10° NNW 04:35:37 12° NW 04:35:37 12° NW visible
